Weather History for Dalhart, TX

Change the Weather History Date:

Friday, September 27, 2013

  Actual Average Record
Temperature  
Mean Temperature 70 °F 63 °F  
Max Temperature 81 °F 78 °F 96 °F (2010)
Min Temperature 58 °F 48 °F 39 °F (1996)
Degree Days  
Heating Degree Days 0 4  
Month to date heating degree days 1 46  
Since 1 July heating degree days 1 49  
Cooling Degree Days 5 2  
Month to date cooling degree days 208 127  
Year to date cooling degree days 1561 1123  
Growing Degree Days 22 (Base 50)    
Moisture  
Dew Point 55 °F    
Average Humidity 62    
Maximum Humidity 87    
Minimum Humidity 36    
Precipitation  
Precipitation T in 0.05 in 1.18 in (1976)
Month to date precipitation 1.64 1.51  
Year to date precipitation 6.66 14.86  
Snow  
Snow 0.00 in 0.00 in 0.00 in ()
Month to date snowfall 0.0 0.0  
Since 1 July snowfall 0.0 0.0  
Since 1 September snowfall 0.0 0.0  
Snow Depth 0.00 in    
Sea Level Pressure  
Sea Level Pressure 29.68 in    
Wind  
Wind Speed 16 mph (SSW)    
Max Wind Speed 35 mph    
Max Gust Speed 44 mph    
Visibility 10 miles    
Events Rain , Thunderstorm    
T = Trace of Precipitation, MM = Missing Value Source: NWS Daily Summary

Daily Weather History Graph

Daily Weather History Graph

Search for Another Location

Airport:

Trip Planner

Search our weather history database for the weather conditions in past years. The results will help you decide how hot, cold, wet, or windy it might be!

Date:

Astronomy

Sep. 27, 2013 Rise Set
Actual Time 7:42 AM CDT 7:39 PM CDT
Civil Twilight 7:16 AM CDT 8:04 PM CDT
Nautical Twilight 6:46 AM CDT 8:34 PM CDT
Astronomical Twilight 6:16 AM CDT 9:04 PM CDT
Moon 12:49 AM CDT (9/27) 3:09 PM CDT (9/27)
Length of Visible Light 12h 48m
Length of Day
11h 56m
Last Quarter, 45% of the Moon is Illuminated
Sep 27
Last Quarter
Oct 4
New
Oct 11
First Quarter
Oct 18
Full
Oct 26
Last Quarter

Hourly Weather History & Observations

Time (CDT) Temp. Heat Index Dew Point Humidity Pressure Visibility Wind Dir Wind Speed Gust Speed Precip Events Conditions
12:53 AM 75.9 °F - 46.0 °F 35% 29.65 in 10.0 mi South 20.7 mph 27.6 mph N/A   Partly Cloudy
1:53 AM 73.9 °F - 48.0 °F 40% 29.65 in 10.0 mi South 21.9 mph 31.1 mph N/A   Mostly Cloudy
2:53 AM 72.0 °F - 48.9 °F 44% 29.65 in 10.0 mi South 16.1 mph - N/A   Clear
3:53 AM 71.1 °F - 52.0 °F 51% 29.66 in 10.0 mi South 16.1 mph - N/A   Partly Cloudy
4:53 AM 72.0 °F - 54.0 °F 53% 29.66 in 10.0 mi SSW 18.4 mph - N/A   Mostly Cloudy
5:53 AM 70.0 °F - 54.0 °F 57% 29.66 in 10.0 mi SSW 13.8 mph 21.9 mph N/A   Mostly Cloudy
6:53 AM 68.0 °F - 54.0 °F 61% 29.68 in 10.0 mi South 12.7 mph - N/A   Overcast
7:53 AM 66.0 °F - 55.0 °F 68% 29.69 in 10.0 mi SSE 11.5 mph - N/A   Partly Cloudy
8:53 AM 69.1 °F - 55.9 °F 63% 29.69 in 10.0 mi SSE 13.8 mph - N/A   Clear
9:53 AM 72.0 °F - 55.9 °F 57% 29.71 in 10.0 mi South 18.4 mph - N/A   Scattered Clouds
10:53 AM 72.0 °F - 55.0 °F 55% 29.72 in 10.0 mi SW 19.6 mph 29.9 mph N/A   Mostly Cloudy
11:53 AM 70.0 °F - 59.0 °F 68% 29.70 in 10.0 mi SSW 18.4 mph 27.6 mph 0.00 in   Mostly Cloudy
12:53 PM 72.0 °F - 59.0 °F 64% 29.69 in 10.0 mi South 17.3 mph - 0.00 in Rain Light Rain
1:53 PM 72.0 °F - 57.9 °F 61% 29.68 in 10.0 mi South 24.2 mph 28.8 mph 0.00 in   Overcast
2:53 PM 77.0 °F - 57.0 °F 50% 29.63 in 10.0 mi South 18.4 mph 24.2 mph N/A   Mostly Cloudy
3:53 PM 80.1 °F 80.2 °F 55.9 °F 43% 29.61 in 10.0 mi South 23.0 mph 28.8 mph 0.00 in   Mostly Cloudy
4:53 PM 73.9 °F - 55.9 °F 53% 29.63 in 10.0 mi South 23.0 mph 31.1 mph N/A   Overcast
5:53 PM 77.0 °F - 52.0 °F 42% 29.61 in 10.0 mi South 20.7 mph 29.9 mph N/A   Clear
6:53 PM 79.0 °F - 52.0 °F 39% 29.60 in 10.0 mi South 21.9 mph 29.9 mph N/A   Clear
7:53 PM 77.0 °F - 52.0 °F 42% 29.59 in 10.0 mi South 13.8 mph - N/A   Partly Cloudy
8:53 PM 71.1 °F - 53.1 °F 53% 29.62 in 10.0 mi South 6.9 mph - N/A   Scattered Clouds
9:20 PM 69.8 °F - 55.4 °F 60% 29.84 in 10.0 mi West 34.5 mph 43.7 mph N/A Thunderstorm Squalls
9:33 PM 64.4 °F - 60.8 °F 88% 29.84 in 10.0 mi West 15.0 mph 20.7 mph 0.00 in Rain Light Rain
9:53 PM 64.9 °F - 60.1 °F 84% 29.68 in 10.0 mi West 5.8 mph - 0.00 in   Overcast
10:53 PM 64.9 °F - 61.0 °F 87% 29.72 in 10.0 mi West 12.7 mph - N/A   Overcast
11:53 PM 62.1 °F - 48.0 °F 60% 29.77 in 10.0 mi West 11.5 mph - N/A   Overcast